Track STARLINK-2092 now! 10-day predictions STARLINK-2092 is classified as:
1 47373U 21005AA 21110.91667824 .00025186 00000-0 17047-2 0 9993 2 47373 53.0558 149.2876 0000964 75.0030 72.2554 15.06378666 14180